Powrót do katalogu

COSMOS 252 DEB

AktywnyLEO
NORAD 18490·DEBRIS·🇷🇺 Russia

Wystrzelony Nov 1, 1968 z Baikonur Cosmodrome

Loading…

Następne Przeloty (najbliższe 24 godziny)

TLE

ŚwieżeSource: Space-Track

Epoka: Sep 14, 2026, 12:44 UTC

1 18490U 68097EN  26257.53097643  .00006506  00000-0  97157-3 0  9990
2 18490  62.7361 249.2989 0426279   4.2424 356.2067 14.28929074725186

Śledź COSMOS 252 DEB w czasie rzeczywistym z AllMySat

Download on the App Store